Idaho Falls Regional Airport
KIDA : now visible

Airfield :











YOU CAN JOIN US ON...

 
LOGIN :

Register | Disclaimer

   EN    FR    IT 

 









Legend :    VFR   Marginal VFR   IFR   Intensive IFR   Very Intensive IFR
Visi :
Ceiling :
>= 8 km
>= 3000ft
5 to 8 km
1000 to 3000 ft
1500m to 5 km
500 to 1000 ft
800 to 1500m
200 to 500 ft
< 800m
< 200 ft
Symbols :   Thunderstorms  Fog  Heavy snow  Heavy precipitations  Wind > 20 kt






- Airport Elevation : 4744 ft
- IATA code : IDA


KIDA - Idaho Falls Regional

CURRENT METAR :
  • 021753Z 23008KT 10SM SCT050 24/15 A3030 RMK AO2 LTG DSNT N AND SE SLP215 T02440150 10250 20183 58003

EXPIRED METARs :
  • 021653Z 20009KT 10SM FEW025 24/16 A3031 RMK AO2 SLP218 T02390156
  • 021553Z 23007KT 10SM CLR 22/16 A3032 RMK AO2 SLP222 T02170161

TAF KIDA
Valid from the 02 at 18:00 until the 03 at 18:00 UTC


021720Z 0218/0318 23011KT P6SM VCTS SCT035 BKN060CB
FM030600 VRB04KT P6SM SCT035 BKN200
KZLC FIR / North America



MET'MAP, your aeronautical weather chart ! - Copyright ORBIFLY December 2007 - Disclaimer

ORBIFLY MET'MAP TEAM :

Programming & Development : Alexandra Zaïnal
Concept & original design : Baudouin d'Aumeries
Assistance for programming : Marc-Olivier Méhu
Technical & hardware support : Manuel Goepfert

Contact : metmap@orbifly.com




SOURCES & CREDITS :

   NOAA       Earth
Advisory